Hourly Weather Roundup
Issued by NWS

Home | Current Version | Previous Version | Text Only | Print | Product List | Glossary On
Versions: 1 2 3 4 5 6 7 8 9 10 11 12 13 14 15 16 17 18 19 20 21 22 23 24 25 26 27 28 29 30 31 32 33 34 35 36 37 38 39 40 41 42 43 44 45 46 47 48 49 50
000
NZUS43 KILX 221510
HWRCRS

NWR Hourly Weather Roundup
National Weather Service Lincoln IL
900 AM CST SUN JAN 22 2017


CITY           SKY/WX    TMP DP  RH WIND       PRES   REMARKS
Champaign      CLOUDY    45  41  86 NE8       29.58F
Lawrenceville  CLOUDY    51  49  92 NE6       29.53F
Peoria         CLOUDY    39  39 100 N7        29.62F FOG     WCI  34
Springfield    FOG       41  40  96 N10       29.60S VSB 1/2 WCI  35
$$


CITY           SKY/WX    TMP DP  RH WIND       PRES   REMARKS
Bloomington    FOG       39  39 100 N12       29.62R VSB 1/2 WCI  32
Danville       CLOUDY    43  43  99 N7        29.57S FOG
Decatur        CLOUDY    42  42 100 NE8       29.59R FOG
Effingham      CLOUDY    51  51 100 CALM      29.55F
Flora          CLOUDY    52  50  92 N6        29.52F
Galesburg      CLOUDY    35  35 100 CALM      29.64R FOG
Jacksonville   FOG       40  40 100 N7        29.60S VSB 1/4
Lacon          FOG       35  35 100 CALM      29.64R VSB 1/4
La Salle       FOG       32  32  99 CALM      29.65R VSB 1/4
Lincoln        CLOUDY    41  41 100 N9        29.61R FOG
Litchfield     CLOUDY    41  41  97 NE10      29.55S FOG

CITY           SKY/WX    TMP DP  RH WIND       PRES   REMARKS
Macomb         CLOUDY    38  38 100 N7        29.65R FOG     WCI  33
Mattoon        CLOUDY    47  47 100 N7        29.55F FOG
Moline         CLOUDY    34  32  92 CALM      29.65R FOG
Olney          MOSUNNY   52  52 100 NE7       29.52F
Paris          PTSUNNY   48  48 100 E5        29.58S
Pontiac        FOG       40  40 100 N6        29.63R VSB 1/2
Quincy         CLOUDY    41  39  93 NE10      29.61R FOG     WCI  35
Rantoul        CLOUDY    41  40  98 NE8       29.60S FOG
Robinson       CLOUDY    49  48  99 NE5       29.55F
Taylorville    CLOUDY    41  40  98 N8        29.58R FOG
Terre Haute    CLOUDY    51  48  89 NE5       29.57S
$$


CITY           SKY/WX    TMP DP  RH WIND       PRES   REMARKS
Burlington     MIX PCPN  38  37  97 N5        29.64R FOG     WCI  34
Chicago        CLOUDY    41  38  89 N5        29.63R
Des Moines     CLOUDY    34  32  92 NW12      29.70R WCI  25
Evansville     CLOUDY    53  49  86 NE3       29.50F
Indianapolis   CLOUDY    52  49  89 E3        29.57S
Kansas City    CLOUDY    42  37  82 N12       29.66R
Milwaukee      CLOUDY    42  39  89 NW3       29.64R FOG
St Louis       CLOUDY    48  42  80 N7        29.53S
$$





USA.gov is the U.S. government's official web portal to all federal, state and local government web resources and services.